Location: Clandonald
(53.5720°N, 110.7141°W)
Time: 06:07:14
(UTC+00:00)

Envisat - Pass Details

Date: 28 October 2019
Orbit: 764 x 766 km, 98.1° (Epoch: 19 November)

Event Time Altitude Azimuth Distance (km) Brightness Sun altitude
Rises 02:32:42 0° 205° (SSW) 3,224 6.4 -23.1°
Reaches altitude 10° 02:35:31 10° 221° (SW) 2,303 5.8 -23.5°
Maximum altitude 02:39:22 22° 271° (W) 1,654 5.5 -24.1°
Drops below altitude 10° 02:43:15 10° 321° (NW) 2,315 6.1 -24.7°
Sets 02:46:07 0° 337° (NNW) 3,247 6.7 -25.1°
